Location: Andrest
(43.3200°N, 0.0641°E)
Time: 23:06:39
(UTC+00:00)

Cosmos 1602 Rocket - Visible Passes

Search period start: 24 June 2021 00:00
Search period end: 04 July 2021 00:00
Orbit: 604 x 633 km, 82.5° (Epoch: 24 June)

Date Brightness Start Highest point End Pass type
(mag) Time Alt. Az. Time Alt. Az. Time Alt. Az.
24 Jun 6.1 00:48:24 10° W 00:50:04 12° WNW 00:51:48 10° NW visible
24 Jun 5.7 21:51:02 12° E 21:51:34 12° E 21:53:20 10° ENE visible
24 Jun 3.8 23:28:09 55° SW 23:28:50 64° W 23:33:16 10° N visible
25 Jun 5.1 22:07:53 21° E 22:08:25 22° E 22:11:50 10° NE visible
25 Jun 4.7 23:45:01 31° WSW 23:46:02 35° WNW 23:50:09 10° N visible
26 Jun 4.2 22:24:44 36° ESE 22:25:21 38° E 22:29:30 10° NNE visible
27 Jun 5.6 00:01:52 17° W 00:03:21 20° WNW 00:06:41 10° NNW visible
27 Jun 3.5 22:41:33 56° SSE 22:42:23 72° E 22:46:51 10° NNE visible
28 Jun 6.2 00:19:13 10° W 00:20:46 12° WNW 00:22:21 10° NW visible
28 Jun 5.6 21:21:15 12° E 21:22:14 12° E 21:24:07 10° ENE visible
28 Jun 3.9 22:58:22 45° SW 22:59:30 62° W 23:03:57 10° N visible
29 Jun 5.0 21:38:02 20° ESE 21:39:05 22° E 21:42:33 10° NE visible
29 Jun 4.9 23:15:09 26° WSW 23:16:44 34° WNW 23:20:48 10° N visible
30 Jun 4.2 21:54:48 32° SE 21:56:02 40° E 22:00:12 10° NNE visible
30 Jun 5.8 23:31:55 14° WSW 23:34:02 20° WNW 23:37:18 10° NNW visible
01 Jul 3.5 22:11:33 40° S 22:13:04 74° E 22:17:31 10° NNE visible
01 Jul 6.3 23:50:07 10° W 23:51:28 11° WNW 23:52:50 10° NW visible
02 Jul 5.6 20:51:09 11° ESE 20:52:54 13° E 20:54:53 10° ENE visible
02 Jul 4.0 22:28:16 31° SSW 22:30:12 59° W 22:34:36 10° N visible
03 Jul 5.0 21:07:50 17° ESE 21:09:46 23° E 21:13:15 10° NE visible
03 Jul 5.0 22:44:57 19° SW 22:47:25 32° WNW 22:51:26 10° N visible
